Weather reports worldwide

Advertisment
Soderstjerna, Sweden (2667): temperature & dewpoint: 06.12.2019 18:00:00 - 12.12.2019 18:00:00 (CET)Soderstjerna, Sweden (2667): wind speed & gusts: 06.12.2019 18:00:00 - 12.12.2019 18:00:00 (CET)Soderstjerna, Sweden (2667): wind direction: 06.12.2019 18:00:00 - 12.12.2019 18:00:00 (CET)Soderstjerna, Sweden (2667): reduced air pressure: 06.12.2019 18:00:00 - 12.12.2019 18:00:00 (CET)Soderstjerna, Sweden (2667): visibility: 06.12.2019 18:00:00 - 12.12.2019 18:00:00 (CET)Soderstjerna, Sweden (2667): precipitation: 06.12.2019 18:00:00 - 12.12.2019 18:00:00 (CET)
Date & Time tt [°C] td [°C] ff [km/h] ff [kn] fx [km/h] fx [kn] dd ppp [hPa] vv [km] rr [mm]
12.12.2019 18:00:00 - - - - - - - - - -
12.12.2019 17:00:00 5,0 3,7 14 8 22 12 WSW 997,9 50 0,0
12.12.2019 16:00:00 4,7 2,9 14 8 22 12 WSW 998,0 50 0,0
12.12.2019 15:00:00 4,4 3,1 14 8 29 16 WSW 997,8 50 0,1
12.12.2019 14:00:00 4,5 3,0 18 10 22 12 SSW 997,9 14 0,0
12.12.2019 13:00:00 4,2 1,9 14 8 22 12 SSW 998,4 12 0,0
12.12.2019 12:00:00 4,6 1,6 14 8 25 14 SSW 998,9 16 0,0
12.12.2019 11:00:00 4,6 2,0 22 12 25 14 S 999,6 14 0,0
12.12.2019 10:00:00 4,5 2,0 22 12 25 14 S 1000,1 13 0,0
12.12.2019 09:00:00 4,5 2,5 22 12 32 18 S 1000,2 11 0,0
12.12.2019 08:00:00 4,7 2,6 25 14 36 19 S 1000,5 12 0,0
12.12.2019 07:00:00 4,8 2,8 29 16 36 19 S 1000,8 14 0,0
12.12.2019 06:00:00 5,1 3,1 25 14 32 18 S 1001,2 18 0,0
12.12.2019 05:00:00 5,2 3,1 22 12 29 16 SSW 1001,6 16 0,0
12.12.2019 04:00:00 4,8 3,5 22 12 29 16 SSW 1002,2 30 0,1
12.12.2019 03:00:00 4,4 3,2 22 12 29 16 SSW 1002,9 14 0,1
12.12.2019 02:00:00 4,4 3,2 25 14 29 16 SSW 1003,5 8 0,1
12.12.2019 01:00:00 4,6 3,4 25 14 29 16 SSW 1004,0 19 0,1
12.12.2019 00:00:00 4,6 3,3 22 12 25 14 SSW 1004,3 17 0,1
11.12.2019 23:00:00 4,6 3,4 25 14 29 16 SSW 1004,8 12 0,4
11.12.2019 22:00:00 4,8 3,6 25 14 29 16 SSW 1005,2 13 0,6
11.12.2019 21:00:00 4,7 3,7 22 12 25 14 SW 1005,6 15 0,6
11.12.2019 20:00:00 4,9 3,9 22 12 32 18 SSW 1005,9 14 0,3
11.12.2019 19:00:00 5,2 4,2 29 16 36 19 SSW 1006,0 11 0,3
11.12.2019 18:00:00 5,4 4,7 29 16 32 18 SSW 1006,3 9 0,6
11.12.2019 17:00:00 5,4 5,0 22 12 25 14 SW 1006,6 10 0,7
11.12.2019 16:00:00 5,5 4,6 22 12 32 18 SW 1006,8 18 0,3
11.12.2019 15:00:00 5,5 4,8 25 14 36 19 SW 1007,0 19 0,2
11.12.2019 14:00:00 5,5 4,8 29 16 40 21 SW 1007,2 14 0,5
11.12.2019 13:00:00 5,4 4,8 29 16 40 21 SW 1007,5 7 0,0
11.12.2019 12:00:00 5,5 4,5 32 18 40 21 SW 1007,7 7 0,1
11.12.2019 11:00:00 5,4 4,4 32 18 47 25 SW 1008,1 9 0,1
11.12.2019 10:00:00 5,6 3,8 36 19 58 31 SW 1008,3 21 0,0
11.12.2019 09:00:00 5,8 3,0 47 25 58 31 SW 1007,9 19 0,0
11.12.2019 08:00:00 5,9 2,9 43 23 58 31 SW 1007,9 20 0,0
11.12.2019 07:00:00 5,9 2,9 43 23 61 33 SSW 1008,3 19 0,0
11.12.2019 06:00:00 5,8 2,6 47 25 65 35 SSW 1008,8 18 0,0
11.12.2019 05:00:00 6,1 2,0 50 27 65 35 SSW 1009,4 18 0,0
11.12.2019 04:00:00 5,9 2,0 50 27 61 33 SSW 1010,7 21 0,0
11.12.2019 03:00:00 5,9 2,5 47 25 58 31 SSW 1011,7 18 0,0
11.12.2019 02:00:00 5,9 2,5 47 25 58 31 SSW 1013,0 20 0,0
11.12.2019 01:00:00 5,8 2,6 43 23 50 27 SSW 1014,2 20 0,0
11.12.2019 00:00:00 5,8 3,1 43 23 50 27 SSW 1015,1 18 0,0
10.12.2019 23:00:00 5,7 2,9 40 21 50 27 SSW 1015,8 26 0,0
10.12.2019 22:00:00 5,5 2,1 40 21 47 25 SSW 1016,7 40 0,0
10.12.2019 21:00:00 5,3 0,5 32 18 40 21 SSW 1017,5 50 0,0
10.12.2019 20:00:00 4,9 -0,5 25 14 32 18 SSW 1018,2 45 0,0
10.12.2019 19:00:00 3,7 -0,7 14 8 22 12 SSW 1019,1 50 0,0
10.12.2019 18:00:00 2,6 -2,1 11 6 14 8 SW 1019,8 50 0,0
10.12.2019 17:00:00 1,8 -2,5 7 4 11 6 WSW 1019,9 50 0,0
10.12.2019 16:00:00 1,7 -3,4 7 4 18 10 WNW 1019,8 50 0,0
10.12.2019 15:00:00 1,9 -3,6 11 6 22 12 WNW 1019,6 45 0,0
10.12.2019 14:00:00 2,2 -3,5 14 8 22 12 WNW 1019,5 45 0,0
10.12.2019 13:00:00 2,0 -3,7 7 4 22 12 NW 1018,5 45 0,0
10.12.2019 12:00:00 1,4 -3,3 11 6 29 16 NW 1018,4 45 0,0
10.12.2019 11:00:00 0,7 -3,4 14 8 29 16 NNW 1017,7 45 0,0
10.12.2019 10:00:00 0,4 -3,0 18 10 29 16 WNW 1016,9 50 0,0
10.12.2019 09:00:00 0,2 -3,2 11 6 22 12 NW 1015,1 50 0,0
10.12.2019 08:00:00 0,5 -3,6 11 6 25 14 NW 1013,3 50 0,0
10.12.2019 07:00:00 1,0 -3,5 14 8 32 18 NNW 1011,5 50 0,0
10.12.2019 06:00:00 1,2 -3,1 18 10 40 21 NNW 1009,4 50 0,0
10.12.2019 05:00:00 1,9 -1,9 22 12 40 21 NNW 1007,2 50 0,0
10.12.2019 04:00:00 2,4 -0,5 22 12 43 23 N 1004,8 50 0,1
10.12.2019 03:00:00 2,5 0,1 22 12 40 21 NNW 1002,2 19 0,1
10.12.2019 02:00:00 3,3 0,9 22 12 47 25 NNW 999,5 30 0,0
10.12.2019 01:00:00 4,5 1,9 22 12 40 21 NW 997,3 50 0,0
10.12.2019 00:00:00 5,8 3,6 32 18 50 27 W 995,7 45 0,0
09.12.2019 23:00:00 6,1 3,3 40 21 54 29 W 994,9 30 0,0
09.12.2019 22:00:00 6,7 3,5 40 21 54 29 WSW 994,4 17 0,0
09.12.2019 21:00:00 6,7 3,8 36 19 50 27 WSW 993,9 17 0,0
09.12.2019 20:00:00 6,9 4,2 36 19 50 27 WSW 993,6 23 0,0
09.12.2019 19:00:00 7,1 5,1 36 19 58 31 WSW 993,0 28 0,3
09.12.2019 18:00:00 7,5 5,1 43 23 58 31 WSW 992,3 27 0,0
09.12.2019 17:00:00 7,4 5,0 43 23 58 31 SW 991,7 22 0,0
09.12.2019 16:00:00 7,6 4,5 47 25 58 31 SW 991,3 26 0,0
09.12.2019 15:00:00 7,5 4,5 43 23 54 29 SW 990,8 22 0,0
09.12.2019 14:00:00 7,3 5,3 36 19 58 31 WSW 990,9 16 0,0
09.12.2019 13:00:00 7,5 4,5 40 21 61 33 WSW 990,6 21 0,0
09.12.2019 12:00:00 7,5 4,5 40 21 54 29 WSW 990,5 23 0,0
09.12.2019 11:00:00 7,4 4,4 40 21 58 31 WSW 990,3 23 0,0
09.12.2019 10:00:00 7,2 4,5 40 21 54 29 WSW 990,2 24 0,0
09.12.2019 09:00:00 7,1 4,4 40 21 54 29 WSW 989,5 20 0,0
09.12.2019 08:00:00 7,1 4,7 40 21 54 29 WSW 989,2 19 0,0
09.12.2019 07:00:00 7,0 4,7 40 21 58 31 WSW 988,6 18 0,0
09.12.2019 06:00:00 6,9 4,2 43 23 58 31 WSW 988,1 30 0,0
09.12.2019 05:00:00 7,1 4,7 43 23 54 29 WSW 988,0 17 0,0
09.12.2019 04:00:00 7,1 4,7 40 21 54 29 WSW 987,8 21 0,0
09.12.2019 03:00:00 6,9 5,1 40 21 68 37 WSW - - 0,0
09.12.2019 02:00:00 7,1 4,9 43 23 58 31 WSW 987,4 17 0,0
09.12.2019 01:00:00 7,2 4,7 43 23 54 29 WSW - 21 0,0
09.12.2019 00:00:00 7,4 5,0 40 21 58 31 WSW 987,1 17 0,0
08.12.2019 23:00:00 7,7 5,5 36 19 54 29 WSW 986,9 - 0,0
08.12.2019 22:00:00 7,8 5,6 40 21 50 27 WSW 986,7 15 0,0
08.12.2019 21:00:00 7,7 5,7 40 21 54 29 WSW 986,5 16 0,0
08.12.2019 20:00:00 8,1 6,1 43 23 54 29 WSW 986,1 26 0,0
08.12.2019 19:00:00 8,5 7,0 43 23 65 35 WSW 985,6 22 4,0
08.12.2019 18:00:00 8,6 7,2 50 27 65 35 WSW - 26 0,0
08.12.2019 17:00:00 8,4 7,5 50 27 68 37 SW 984,9 22 0,1
08.12.2019 16:00:00 7,9 7,1 54 29 72 39 SW 985,2 14 0,0
08.12.2019 15:00:00 7,8 6,9 54 29 72 39 SW 985,8 14 0,0
08.12.2019 14:00:00 7,6 6,7 54 29 72 39 SW 986,7 19 0,1
08.12.2019 13:00:00 7,4 6,3 50 27 68 37 SW 987,9 11 0,3
08.12.2019 12:00:00 7,3 6,2 54 29 68 37 SW 989,3 5 0,4
08.12.2019 11:00:00 7,6 6,1 50 27 68 37 SW 990,8 7 0,1
08.12.2019 10:00:00 7,1 6,4 47 25 61 33 SW 992,4 4,5 2,0
08.12.2019 09:00:00 7,1 6,4 43 23 58 31 SW 993,9 4,6 1,0
08.12.2019 08:00:00 7,3 6,4 40 21 50 27 SW 995,1 9 0,5
08.12.2019 07:00:00 7,5 6,8 36 19 47 25 SW 996,4 11 0,1
08.12.2019 06:00:00 6,7 6,1 25 14 40 21 SW 997,3 7 0,8
08.12.2019 05:00:00 6,9 5,4 32 18 40 21 SW 998,8 14 0,0
08.12.2019 04:00:00 6,3 4,5 25 14 32 18 WSW 1000,1 30 0,0
08.12.2019 03:00:00 6,1 4,3 25 14 40 21 WSW 1000,9 35 0,0
08.12.2019 02:00:00 5,7 3,4 32 18 40 21 W 1001,1 35 0,0
08.12.2019 01:00:00 5,4 3,2 25 14 32 18 W 1001,7 30 0,0
08.12.2019 00:00:00 5,7 3,2 29 16 40 21 W 1001,5 29 0,0
07.12.2019 23:00:00 5,8 3,0 32 18 40 21 W 1001,3 30 0,0
07.12.2019 22:00:00 5,8 3,1 32 18 40 21 W 1000,8 29 0,0
07.12.2019 21:00:00 5,6 2,8 29 16 36 19 W 1000,0 30 0,0
07.12.2019 20:00:00 5,8 2,6 25 14 47 25 W 999,9 30 0,0
07.12.2019 19:00:00 - - 36 19 47 25 W 998,5 - 0,0
07.12.2019 18:00:00 6,1 2,9 32 18 54 29 W 997,6 30 0,0
07.12.2019 17:00:00 6,4 3,0 32 18 58 31 W 996,7 35 0,0
07.12.2019 16:00:00 6,7 3,1 40 21 58 31 W 995,8 29 0,0
07.12.2019 15:00:00 7,1 3,2 32 18 50 27 W 994,8 35 0,0
07.12.2019 14:00:00 7,4 3,4 36 19 54 29 W 994,1 35 0,0
07.12.2019 13:00:00 7,6 4,5 32 18 50 27 W 993,0 29 0,0
07.12.2019 12:00:00 7,9 5,5 40 21 58 31 W 992,1 45 0,0
07.12.2019 11:00:00 8,1 7,3 40 21 54 29 WSW 991,3 29 0,0
07.12.2019 10:00:00 8,0 7,1 32 18 43 23 WSW 991,6 23 0,0
07.12.2019 09:00:00 7,9 7,0 29 16 40 21 WSW 991,5 27 0,0
07.12.2019 08:00:00 7,8 7,0 32 18 43 23 WSW 991,5 24 0,0
07.12.2019 07:00:00 7,8 7,2 36 19 43 23 WSW 991,2 35 0,0
07.12.2019 06:00:00 7,5 7,1 32 18 43 23 WSW 991,6 14 0,0
07.12.2019 05:00:00 7,5 7,1 32 18 47 25 WSW 992,1 15 0,1
07.12.2019 04:00:00 7,4 7,0 36 19 50 27 WSW 992,5 10 0,0
07.12.2019 03:00:00 7,3 6,7 36 19 54 29 WSW 993,1 19 0,0
07.12.2019 02:00:00 7,2 6,5 32 18 47 25 SW - 12 0,1
07.12.2019 01:00:00 7,2 6,6 32 18 47 25 WSW 994,7 6 0,0
07.12.2019 00:00:00 7,1 6,5 36 19 54 29 SW 995,4 14 0,1
06.12.2019 23:00:00 7,1 6,4 40 21 50 27 SW 995,7 - 0,0
06.12.2019 22:00:00 7,1 6,4 36 19 50 27 SW 996,4 14 0,1
06.12.2019 21:00:00 7,2 6,5 36 19 47 25 SW 997,0 45 0,0
06.12.2019 20:00:00 7,0 6,4 36 19 50 27 SW 997,7 4,6 0,2
06.12.2019 19:00:00 7,3 6,6 36 19 50 27 WSW 997,8 5 0,1
06.12.2019 18:00:00 7,5 6,8 32 18 47 25 WSW - 15 0,0

tt = temperature
td = dewpoint
ff = wind speed
fx = gusts
dd = wind direction
ppp = reduced air pressure
vv = visibility
rr = precipitation

Next stations